| time (UTC) | temp F | wind direction | speed MPH | gust MPH | rain 1hr in | rain 24hr in | rain mn in | humidity % | barometer mb |
| 20260506040039 | 71 | 280 | 0.0 | 3.0 | 0.05 | 0.81 | 0.00 | 40 | 1007.5 |
| 20260506035838 | 72 | 141 | 0.0 | 4.0 | 0.05 | 0.81 | 0.81 | 43 | 1008.3 |
| 20260506035411 | 72 | 174 | 1.0 | 7.0 | 0.05 | 0.81 | 0.81 | 40 | 1008.3 |
| 20260506034843 | 72 | 140 | 3.0 | 7.0 | 0.05 | 0.81 | 0.81 | 39 | 1008.3 |
| 20260506034540 | 72 | 108 | 1.0 | 6.0 | 0.05 | 0.81 | 0.81 | 39 | 1007.6 |
| 20260506034335 | 72 | 190 | 2.0 | 6.0 | 0.05 | 0.81 | 0.81 | 39 | 1008.3 |
| 20260506033848 | 73 | 214 | 3.0 | 7.0 | 0.05 | 0.81 | 0.81 | 39 | 1008.3 |
| 20260506033340 | 73 | 167 | 4.0 | 7.0 | 0.05 | 0.81 | 0.81 | 39 | 1008.3 |
| 20260506033053 | 72 | 148 | 2.0 | 7.0 | 0.05 | 0.81 | 0.81 | 39 | 1007.5 |
| 20260506032852 | 73 | 138 | 2.0 | 16.0 | 0.05 | 0.81 | 0.81 | 39 | 1008.2 |
| 20260506032343 | 73 | 195 | 3.0 | 16.0 | 0.05 | 0.81 | 0.81 | 39 | 1008.3 |
| 20260506031856 | 73 | 129 | 2.0 | 9.0 | 0.02 | 0.78 | 0.78 | 39 | 1008.3 |
| 20260506031552 | 72 | 107 | 3.0 | 9.0 | 0.02 | 0.78 | 0.78 | 39 | 1007.5 |
| 20260506031347 | 72 | 186 | 2.0 | 8.0 | 0.00 | 0.76 | 0.76 | 40 | 1008.3 |
| 20260506030839 | 72 | 177 | 2.0 | 7.0 | 0.00 | 0.76 | 0.76 | 41 | 1008.2 |
| 20260506030355 | 71 | 232 | 2.0 | 7.0 | 0.00 | 0.76 | 0.76 | 42 | 1008.2 |
| 20260506030005 | 70 | 141 | 2.0 | 7.0 | 0.00 | 0.76 | 0.76 | 45 | 1007.6 |
| 20260506025903 | 70 | 182 | 2.0 | 7.0 | 0.00 | 0.76 | 0.76 | 44 | 1008.3 |
| 20260506025336 | 69 | 182 | 3.0 | 6.0 | 0.00 | 0.76 | 0.76 | 45 | 1008.3 |
| 20260506024848 | 69 | 117 | 0.0 | 5.0 | 0.00 | 0.76 | 0.76 | 48 | 1008.4 |
| 20260506024549 | 68 | 192 | 0.0 | 5.0 | 0.00 | 0.76 | 0.76 | 50 | 1007.7 |
| 20260506024340 | 68 | 212 | 2.0 | 5.0 | 0.00 | 0.76 | 0.76 | 47 | 1008.4 |
| 20260506023853 | 68 | 87 | 0.0 | 3.0 | 0.00 | 0.76 | 0.76 | 49 | 1008.4 |
| 20260506023406 | 67 | 89 | 0.0 | 2.0 | 0.00 | 0.76 | 0.76 | 52 | 1008.4 |
| 20260506023017 | 67 | 89 | 0.0 | 3.0 | 0.00 | 0.76 | 0.76 | 51 | 1007.6 |
| 20260506022855 | 67 | 89 | 0.0 | 3.0 | 0.00 | 0.76 | 0.76 | 51 | 1008.4 |
| 20260506022348 | 67 | 90 | 327.0 | 327.0 | 0.00 | 0.00 | 0.76 | 52 | 1008.2 |
| 20260506021839 | 67 | 308 | 0.0 | 1.0 | 0.00 | 0.76 | 0.76 | 52 | 1008.4 |
| 20260506021553 | 67 | 276 | 0.0 | 2.0 | 0.00 | 0.76 | 0.76 | 52 | 1007.7 |
| 20260506021353 | 68 | 276 | 0.0 | 4.0 | 0.00 | 0.76 | 0.76 | 52 | 1008.3 |
| 20260506020845 | 68 | 276 | 1.0 | 4.0 | 0.00 | 0.76 | 0.76 | 48 | 1008.4 |
| 20260506020340 | 68 | 149 | 1.0 | 4.0 | 0.00 | 0.76 | 0.76 | 53 | 1008.4 |
| 20260506020049 | 67 | 148 | 1.0 | 4.0 | 0.00 | 0.76 | 0.76 | 50 | 1007.7 |
| 20260506015849 | 68 | 150 | 0.0 | 3.0 | 0.00 | 0.76 | 0.76 | 49 | 1008.4 |
| 20260506015342 | 68 | 228 | 1.0 | 3.0 | 0.00 | 0.76 | 0.76 | 54 | 1008.3 |
| 20260506014838 | 68 | 68 | 1.0 | 3.0 | 0.00 | 0.76 | 0.76 | 53 | 1008.3 |
| 20260506014552 | 68 | 287 | 0.0 | 2.0 | 0.00 | 0.76 | 0.76 | 55 | 1007.6 |
| 20260506014351 | 68 | 142 | 1.0 | 3.0 | 0.00 | 0.76 | 0.76 | 50 | 1008.2 |
| 20260506013845 | 68 | 139 | 0.0 | 4.0 | 0.00 | 0.76 | 0.76 | 53 | 1008.2 |
| 20260506013336 | 68 | 217 | 1.0 | 4.0 | 0.00 | 0.76 | 0.76 | 54 | 1008.2 |
| 20260506013103 | 67 | 292 | 0.0 | 2.0 | 0.00 | 0.76 | 0.76 | 54 | 1007.6 |
| 20260506012849 | 67 | 141 | 0.0 | 2.0 | 0.00 | 0.76 | 0.76 | 56 | 1008.2 |
| 20260506012341 | 67 | 66 | 0.0 | 0.0 | 0.00 | 0.76 | 0.76 | 54 | 1008.1 |
| 20260506011835 | 67 | 66 | 0.0 | 0.0 | 0.00 | 0.76 | 0.76 | 55 | 1008.2 |
| 20260506011516 | 67 | 66 | 0.0 | 0.0 | 0.00 | 0.76 | 0.76 | 54 | 1007.5 |
| 20260506011408 | 68 | 66 | 0.0 | 0.0 | 0.00 | 0.76 | 0.76 | 54 | 1008.2 |
| 20260506010841 | 68 | 63 | 0.0 | 0.0 | 0.00 | 0.76 | 0.76 | 53 | 1008.2 |
| 20260506010353 | 68 | 63 | 0.0 | 0.0 | 0.00 | 0.76 | 0.76 | 53 | 1008.2 |
| 20260506010121 | 68 | 130 | 0.0 | 0.0 | 0.00 | 0.76 | 0.76 | 53 | 1007.4 |
| 20260506005903 | 69 | 144 | 0.0 | 0.0 | 0.00 | 0.76 | 0.76 | 54 | 1008.1 |
| 20260506005336 | 69 | 144 | 0.0 | 0.0 | 0.00 | 0.76 | 0.76 | 51 | 1008.0 |
| 20260506004848 | 70 | 144 | 0.0 | 0.0 | 0.00 | 0.76 | 0.76 | 48 | 1008.0 |
| 20260506004542 | 70 | 144 | 0.0 | 0.0 | 0.00 | 0.76 | 0.76 | 46 | 1007.2 |
| 20260506004342 | 70 | 144 | 0.0 | 0.0 | 0.00 | 0.76 | 0.76 | 47 | 1007.9 |
| 20260506003855 | 70 | 144 | 0.0 | 1.0 | 0.00 | 0.76 | 0.76 | 49 | 1007.8 |
| 20260506003348 | 70 | 144 | 0.0 | 3.0 | 0.00 | 0.76 | 0.76 | 50 | 1007.9 |
| 20260506003041 | 70 | 293 | 0.0 | 4.0 | 0.00 | 0.76 | 0.76 | 49 | 1007.0 |
| 20260506002841 | 72 | 293 | 1.0 | 4.0 | 0.00 | 0.76 | 0.76 | 49 | 1007.8 |
| 20260506002412 | 72 | 79 | 2.0 | 4.0 | 0.00 | 0.76 | 0.76 | 43 | 1007.6 |
| 20260506001844 | 73 | 192 | 2.0 | 3.0 | 0.00 | 0.76 | 0.76 | 48 | 1007.5 |
| 20260506001606 | 73 | 168 | 1.0 | 3.0 | 0.00 | 0.76 | 0.76 | 46 | 1006.8 |
| 20260506001357 | 73 | 137 | 0.0 | 1.0 | 0.00 | 0.76 | 0.76 | 44 | 1007.6 |
| 20260506000850 | 74 | 137 | 0.0 | 2.0 | 0.00 | 0.76 | 0.76 | 44 | 1007.5 |
| 20260506000345 | 74 | 200 | 0.0 | 2.0 | 0.02 | 0.76 | 0.76 | 43 | 1007.4 |
| 20260506000015 | 74 | 203 | 0.0 | 2.0 | 0.02 | 0.76 | 0.76 | 41 | 1006.8 |
| 20260505235913 | 75 | 203 | 0.0 | 2.0 | 0.02 | 0.76 | 0.76 | 44 | 1007.5 |
| 20260505234849 | 76 | 82 | 2.0 | 4.0 | 0.02 | 0.76 | 0.76 | 37 | 1007.3 |
| 20260505234543 | 76 | 142 | 0.0 | 3.0 | 0.02 | 0.76 | 0.76 | 37 | 1006.7 |
| 20260505234343 | 77 | 192 | 1.0 | 3.0 | 0.02 | 0.76 | 0.76 | 39 | 1007.3 |
| 20260505233855 | 77 | 94 | 1.0 | 3.0 | 0.02 | 0.76 | 0.76 | 35 | 1007.3 |
| 20260505233408 | 78 | 163 | 1.0 | 6.0 | 0.02 | 0.76 | 0.76 | 34 | 1007.2 |
| 20260505233046 | 77 | 143 | 0.0 | 6.0 | 0.02 | 0.76 | 0.76 | 34 | 1006.5 |
| 20260505232838 | 78 | 149 | 2.0 | 5.0 | 0.02 | 0.76 | 0.76 | 34 | 1007.2 |
| 20260505232336 | 78 | 129 | 3.0 | 5.0 | 0.02 | 0.76 | 0.76 | 35 | 1007.1 |
| 20260505231904 | 79 | 139 | 2.0 | 7.0 | 0.02 | 0.76 | 0.76 | 32 | 1007.1 |
| 20260505231517 | 78 | 18 | 1.0 | 8.0 | 0.02 | 0.76 | 0.76 | 32 | 1006.4 |
| 20260505231416 | 79 | 188 | 2.0 | 8.0 | 0.02 | 0.76 | 0.76 | 32 | 1007.0 |
| 20260505230846 | 79 | 175 | 4.0 | 8.0 | 0.02 | 0.76 | 0.76 | 31 | 1006.9 |
| 20260505230344 | 80 | 196 | 2.0 | 8.0 | 0.00 | 0.74 | 0.74 | 30 | 1006.9 |
| 20260505230056 | 79 | 219 | 2.0 | 8.0 | 0.02 | 0.74 | 0.74 | 30 | 1006.2 |
| 20260505225851 | 80 | 211 | 3.0 | 9.0 | 0.02 | 0.74 | 0.74 | 30 | 1006.8 |
| 20260505225344 | 80 | 201 | 3.0 | 9.0 | 0.02 | 0.74 | 0.74 | 30 | 1006.9 |
| 20260505224837 | 80 | 5 | 1.0 | 9.0 | 0.02 | 0.74 | 0.74 | 30 | 1006.8 |
| 20260505224549 | 80 | 233 | 2.0 | 9.0 | 0.03 | 0.74 | 0.74 | 31 | 1006.2 |
| 20260505224348 | 80 | 179 | 3.0 | 9.0 | 0.03 | 0.74 | 0.74 | 30 | 1006.9 |
| 20260505223841 | 80 | 178 | 2.0 | 7.0 | 0.03 | 0.74 | 0.74 | 30 | 1006.9 |
| 20260505223354 | 80 | 87 | 1.0 | 8.0 | 0.03 | 0.74 | 0.74 | 31 | 1006.9 |
| 20260505223048 | 80 | 128 | 1.0 | 8.0 | 0.03 | 0.74 | 0.74 | 31 | 1006.3 |
| 20260505222846 | 80 | 152 | 3.0 | 8.0 | 0.03 | 0.74 | 0.74 | 31 | 1007.0 |
| 20260505222357 | 80 | 215 | 3.0 | 9.0 | 0.03 | 0.74 | 0.74 | 31 | 1007.0 |
| 20260505221847 | 80 | 268 | 3.0 | 8.0 | 0.03 | 0.74 | 0.74 | 30 | 1007.0 |
| 20260505221502 | 80 | 180 | 2.0 | 8.0 | 0.03 | 0.74 | 0.74 | 30 | 1006.4 |
| 20260505221400 | 81 | 210 | 3.0 | 8.0 | 0.03 | 0.74 | 0.74 | 30 | 1007.0 |
| 20260505220852 | 81 | 173 | 3.0 | 12.0 | 0.03 | 0.74 | 0.74 | 29 | 1007.0 |
| 20260505220046 | 81 | 182 | 2.0 | 8.0 | 0.01 | 0.72 | 0.72 | 26 | 1006.2 |
| 20260505215846 | 82 | 188 | 2.0 | 7.0 | 0.01 | 0.74 | 0.72 | 26 | 1006.8 |
| 20260505214902 | 82 | 202 | 5.0 | 15.0 | 0.03 | 0.74 | 0.72 | 25 | 1006.7 |
| 20260505214614 | 82 | 153 | 2.0 | 7.0 | 0.02 | 0.73 | 0.71 | 26 | 1006.1 |
| 20260505214353 | 83 | 123 | 1.0 | 4.0 | 0.02 | 0.73 | 0.71 | 27 | 1006.7 |
| 20260505213846 | 83 | 75 | 1.0 | 4.0 | 0.02 | 0.73 | 0.71 | 26 | 1006.7 |
| 20260505213339 | 83 | 137 | 0.0 | 3.0 | 0.02 | 0.73 | 0.71 | 27 | 1006.8 |
| 20260505213055 | 82 | 209 | 1.0 | 3.0 | 0.02 | 0.73 | 0.71 | 27 | 1006.0 |
| 20260505212851 | 82 | 140 | 1.0 | 3.0 | 0.02 | 0.73 | 0.71 | 26 | 1006.7 |
| 20260505212345 | 83 | 199 | 1.0 | 4.0 | 0.03 | 0.73 | 0.71 | 26 | 1006.8 |
| 20260505211917 | 83 | 69 | 1.0 | 7.0 | 0.03 | 0.73 | 0.71 | 26 | 1006.8 |
| 20260505211548 | 83 | 35 | 0.0 | 7.0 | 0.03 | 0.73 | 0.71 | 26 | 1006.1 |
| 20260505211347 | 83 | 158 | 2.0 | 7.0 | 0.03 | 0.73 | 0.71 | 27 | 1006.8 |
| 20260505210839 | 83 | 123 | 2.0 | 6.0 | 0.03 | 0.73 | 0.71 | 26 | 1006.8 |
| 20260505210352 | 84 | 90 | 1.0 | 6.0 | 0.03 | 0.73 | 0.71 | 25 | 1006.6 |
| 20260505210047 | 84 | 168 | 2.0 | 6.0 | 0.03 | 0.73 | 0.71 | 25 | 1006.0 |
| 20260505205846 | 84 | 94 | 1.0 | 5.0 | 0.03 | 0.77 | 0.71 | 27 | 1006.7 |
| 20260505205339 | 84 | 130 | 1.0 | 5.0 | 0.01 | 0.75 | 0.69 | 26 | 1006.7 |
| 20260505204852 | 84 | 169 | 2.0 | 5.0 | 0.01 | 0.75 | 0.69 | 27 | 1006.5 |
| 20260505204545 | 84 | 117 | 0.0 | 4.0 | 0.02 | 0.75 | 0.69 | 26 | 1005.9 |
| 20260505204344 | 84 | 118 | 1.0 | 4.0 | 0.03 | 0.75 | 0.69 | 26 | 1006.6 |
| 20260505203837 | 84 | 132 | 1.0 | 4.0 | 0.03 | 0.75 | 0.69 | 27 | 1006.7 |
| 20260505203349 | 83 | 50 | 2.0 | 5.0 | 0.03 | 0.75 | 0.69 | 26 | 1006.7 |
| 20260505203042 | 83 | 53 | 0.0 | 8.0 | 0.03 | 0.75 | 0.69 | 25 | 1006.1 |
| 20260505202842 | 83 | 187 | 0.0 | 8.0 | 0.04 | 0.75 | 0.69 | 25 | 1006.8 |
| 20260505202353 | 84 | 44 | 2.0 | 7.0 | 0.05 | 0.74 | 0.68 | 26 | 1006.7 |
| 20260505201846 | 84 | 209 | 2.0 | 7.0 | 0.05 | 0.74 | 0.68 | 25 | 1006.8 |
| 20260505201600 | 84 | 148 | 0.0 | 7.0 | 0.05 | 0.74 | 0.68 | 25 | 1006.1 |
| 20260505201358 | 84 | 54 | 2.0 | 7.0 | 0.05 | 0.74 | 0.68 | 25 | 1006.7 |
| 20260505200850 | 85 | 5 | 2.0 | 7.0 | 0.05 | 0.74 | 0.68 | 25 | 1006.8 |
| 20260505200343 | 85 | 112 | 3.0 | 10.0 | 0.05 | 0.74 | 0.68 | 25 | 1006.9 |
| 20260505200054 | 85 | 158 | 5.0 | 10.0 | 0.05 | 0.74 | 0.68 | 25 | 1006.1 |
| 20260505195853 | 85 | 51 | 2.0 | 10.0 | 0.06 | 0.75 | 0.68 | 25 | 1006.9 |
| 20260505195345 | 85 | 88 | 2.0 | 11.0 | 0.06 | 0.75 | 0.68 | 23 | 1006.8 |
| 20260505194839 | 86 | 80 | 4.0 | 11.0 | 0.08 | 0.75 | 0.68 | 23 | 1006.8 |
| 20260505194553 | 85 | 115 | 2.0 | 6.0 | 0.07 | 0.74 | 0.67 | 24 | 1006.2 |
| 20260505194352 | 86 | 145 | 1.0 | 8.0 | 0.07 | 0.73 | 0.66 | 24 | 1006.9 |
| 20260505193904 | 86 | 167 | 1.0 | 8.0 | 0.09 | 0.73 | 0.66 | 23 | 1007.0 |
| 20260505193337 | 86 | 71 | 3.0 | 10.0 | 0.09 | 0.73 | 0.66 | 24 | 1006.9 |
| 20260505193049 | 85 | 69 | 3.0 | 14.0 | 0.09 | 0.73 | 0.66 | 23 | 1006.4 |
| 20260505192849 | 86 | 171 | 4.0 | 14.0 | 0.08 | 0.72 | 0.65 | 23 | 1007.1 |
| 20260505192342 | 88 | 126 | 3.0 | 8.0 | 0.06 | 0.70 | 0.63 | 23 | 1007.1 |
| 20260505191853 | 89 | 83 | 1.0 | 8.0 | 0.06 | 0.70 | 0.63 | 24 | 1007.0 |
| 20260505191507 | 87 | 288 | 3.0 | 8.0 | 0.06 | 0.70 | 0.63 | 23 | 1006.4 |
| 20260505191407 | 87 | 128 | 2.0 | 7.0 | 0.07 | 0.70 | 0.63 | 24 | 1007.1 |
| 20260505190853 | 86 | 96 | 3.0 | 9.0 | 0.11 | 0.70 | 0.63 | 22 | 1007.3 |
| 20260505190348 | 86 | 99 | 3.0 | 11.0 | 0.11 | 0.70 | 0.63 | 23 | 1007.2 |
| 20260505190039 | 87 | 101 | 3.0 | 11.0 | 0.11 | 0.70 | 0.63 | 22 | 1006.7 |
| 20260505185835 | 88 | 113 | 4.0 | 10.0 | 0.10 | 0.70 | 0.62 | 23 | 1007.4 |
| 20260505185349 | 87 | 78 | 4.0 | 10.0 | 0.11 | 0.70 | 0.62 | 23 | 1007.6 |
| 20260505184921 | 86 | 80 | 2.0 | 16.0 | 0.09 | 0.68 | 0.60 | 23 | 1007.7 |
| 20260505184550 | 85 | 17 | 4.0 | 16.0 | 0.09 | 0.68 | 0.60 | 23 | 1007.1 |
| 20260505184349 | 85 | 102 | 4.0 | 12.0 | 0.09 | 0.67 | 0.59 | 24 | 1007.8 |
| 20260505183341 | 84 | 49 | 3.0 | 10.0 | 0.18 | 0.65 | 0.57 | 25 | 1007.8 |
| 20260505183119 | 84 | 76 | 3.0 | 10.0 | 0.18 | 0.65 | 0.56 | 25 | 1007.2 |
| 20260505182853 | 85 | 309 | 7.0 | 10.0 | 0.18 | 0.65 | 0.57 | 24 | 1007.9 |
| 20260505182405 | 85 | 144 | 2.0 | 11.0 | 0.18 | 0.65 | 0.57 | 27 | 1008.0 |
| 20260505181838 | 85 | 258 | 3.0 | 11.0 | 0.18 | 0.65 | 0.57 | 25 | 1008.0 |
| 20260505181552 | 84 | 43 | 4.0 | 11.0 | 0.18 | 0.65 | 0.56 | 26 | 1007.5 |
| 20260505181351 | 85 | 208 | 3.0 | 8.0 | 0.17 | 0.64 | 0.56 | 27 | 1008.1 |
| 20260505180843 | 84 | 44 | 2.0 | 11.0 | 0.13 | 0.60 | 0.52 | 27 | 1008.3 |
| 20260505180357 | 84 | 84 | 5.0 | 11.0 | 0.13 | 0.60 | 0.52 | 27 | 1008.3 |
| 20260505180047 | 84 | 17 | 1.0 | 7.0 | 0.13 | 0.60 | 0.52 | 27 | 1007.8 |
| 20260505175845 | 84 | 42 | 2.0 | 7.0 | 0.17 | 0.74 | 0.52 | 28 | 1008.4 |
| 20260505175339 | 84 | 190 | 2.0 | 8.0 | 0.18 | 0.73 | 0.51 | 28 | 1008.5 |
| 20260505174851 | 83 | 130 | 3.0 | 16.0 | 0.18 | 0.73 | 0.51 | 29 | 1008.4 |
| 20260505174505 | 83 | 5 | 3.0 | 16.0 | 0.18 | 0.73 | 0.51 | 28 | 1007.8 |
| 20260505174405 | 83 | 19 | 3.0 | 16.0 | 0.17 | 0.72 | 0.50 | 30 | 1008.4 |
| 20260505173836 | 84 | 198 | 2.0 | 12.0 | 0.08 | 0.61 | 0.39 | 29 | 1008.5 |
| 20260505173349 | 83 | 138 | 2.0 | 12.0 | 0.08 | 0.61 | 0.39 | 29 | 1008.5 |
| 20260505173051 | 83 | 360 | 4.0 | 12.0 | 0.10 | 0.61 | 0.39 | 30 | 1008.0 |
| 20260505172843 | 83 | 184 | 3.0 | 11.0 | 0.11 | 0.61 | 0.39 | 29 | 1008.6 |
| 20260505171541 | 82 | 47 | 1.0 | 9.0 | 0.16 | 0.61 | 0.39 | 31 | 1008.3 |
| 20260505170024 | 80 | 331 | 5.0 | 15.0 | 0.18 | 0.60 | 0.38 | 31 | 1008.6 |
| 20260505164523 | 80 | 52 | 4.0 | 11.0 | 0.14 | 0.57 | 0.33 | 31 | 1008.8 |
| 20260505163022 | 78 | 128 | 3.0 | 10.0 | 0.09 | 0.53 | 0.28 | 33 | 1009.2 |
| 20260505161521 | 79 | 225 | 3.0 | 11.0 | 0.04 | 0.48 | 0.23 | 33 | 1009.1 |
| 20260505153017 | 80 | 98 | 3.0 | 12.0 | 0.12 | 0.48 | 0.19 | 36 | 1009.6 |
| 20260505151513 | 78 | 65 | 3.0 | 11.0 | 0.12 | 0.48 | 0.19 | 38 | 1009.6 |
| 20260505140357 | 74 | 235 | 4.0 | 10.0 | 0.05 | 0.36 | 0.05 | 43 | 1009.7 |
| 20260505124543 | 65 | 157 | 3.0 | 6.0 | 0.00 | 0.31 | 0.00 | 64 | 1010.0 |
| 20260505123039 | 61 | 94 | 0.0 | 3.0 | 0.00 | 0.31 | 0.00 | 76 | 1010.2 |
| 20260505121539 | 59 | 174 | 1.0 | 4.0 | 0.00 | 0.31 | 0.00 | 76 | 1010.4 |
| 20260505120057 | 56 | 355 | 1.0 | 3.0 | 0.00 | 0.31 | 0.00 | 83 | 1010.4 |
| 20260505114529 | 52 | 69 | 0.0 | 2.0 | 0.00 | 0.31 | 0.00 | 93 | 1010.7 |
| 20260505113028 | 50 | 65 | 0.0 | 1.0 | 0.00 | 0.31 | 0.00 | 94 | 1010.6 |
| 20260505111527 | 49 | 65 | 0.0 | 0.0 | 0.00 | 0.31 | 0.00 | 95 | 1010.4 |
| 20260505101522 | 48 | 65 | 0.0 | 0.0 | 0.00 | 0.31 | 0.00 | 95 | 1009.7 |
| 20260505100022 | 48 | 65 | 0.0 | 0.0 | 0.00 | 0.31 | 0.00 | 95 | 1009.6 |
| 20260505094516 | 48 | 65 | 0.0 | 0.0 | 0.00 | 0.31 | 0.00 | 94 | 1009.6 |
| 20260505093014 | 47 | 65 | 0.0 | 2.0 | 0.00 | 0.31 | 0.00 | 94 | 1009.6 |
| 20260505091523 | 48 | 65 | 0.0 | 0.0 | 0.00 | 0.31 | 0.00 | 94 | 1009.4 |
| 20260505090026 | 48 | 65 | 0.0 | 0.0 | 0.00 | 0.31 | 0.00 | 94 | 1009.3 |
| 20260505084510 | 48 | 65 | 0.0 | 2.0 | 0.00 | 0.31 | 0.00 | 93 | 1009.3 |
| 20260505083009 | 48 | 65 | 0.0 | 0.0 | 0.00 | 0.31 | 0.00 | 93 | 1009.4 |
| 20260505081512 | 48 | 65 | 0.0 | 0.0 | 0.00 | 0.31 | 0.00 | 93 | 1009.3 |
| 20260505080007 | 48 | 65 | 0.0 | 0.0 | 2.25 | 0.00 | 0.00 | 94 | 1009.3 |
| 20260505074506 | 47 | 65 | 0.0 | 0.0 | 0.00 | 0.31 | 0.00 | 94 | 1009.2 |
| 20260505073004 | 47 | 65 | 0.0 | 0.0 | 0.00 | 0.31 | 0.00 | 94 | 1009.0 |
| 20260505071511 | 48 | 65 | 0.0 | 0.0 | 0.00 | 0.31 | 0.00 | 93 | 1008.8 |
| 20260505070002 | 48 | 65 | 0.0 | 1.0 | 0.00 | 0.31 | 0.00 | 93 | 1008.9 |
| 20260505064559 | 48 | 65 | 0.0 | 0.0 | 0.00 | 0.31 | 0.00 | 92 | 1009.1 |
| 20260505063058 | 48 | 65 | 0.0 | 2.0 | 0.00 | 0.31 | 0.00 | 92 | 1009.1 |
| 20260505061558 | 49 | 65 | 0.0 | 0.0 | 0.00 | 0.31 | 0.00 | 91 | 1009.1 |
| 20260505060054 | 49 | 65 | 0.0 | 0.0 | 0.00 | 0.31 | 0.00 | 91 | 1009.1 |
| 20260505054616 | 50 | 65 | 0.0 | 0.0 | 0.00 | 0.31 | 0.00 | 90 | 1009.1 |
| 20260505053101 | 50 | 65 | 0.0 | 0.0 | 0.00 | 0.31 | 0.00 | 89 | 1009.1 |
| 20260505051548 | 50 | 65 | 0.0 | 0.0 | 0.00 | 0.31 | 0.00 | 89 | 1009.1 |
| 20260505041559 | 52 | 65 | 0.0 | 1.0 | 0.00 | 0.31 | 0.00 | 86 | 1009.1 |
| 20260505041353 | 53 | 65 | 0.0 | 1.0 | 0.00 | 0.31 | 0.00 | 86 | 1009.5 |
| 20260505040905 | 53 | 65 | 0.0 | 0.0 | 0.00 | 0.31 | 0.00 | 85 | 1009.5 |
| 20260505040358 | 53 | 65 | 0.0 | 0.0 | 0.00 | 0.31 | 0.00 | 84 | 1009.5 |